Probability
0 0 0 0 0 0 0 0 0 0 0 0 0 0 0 0 0 0 0 0 0 0 0 0 0 0 0 0 0 0 0 0 0 0 0 0 0 0 0 0 0 0 0 0 0 0 0 0 0
0 0 0 0 0 0 0 0 0 0 0 0 0 0 0 0 0 0 0 0 0 0 0 0 0 0 0 0 0 0 0 0 0 0 0 0 0 0 0 0 0 0 0 0 0 0 0 0 0
0 0 0 0 0 0 0 0 0 0 0 0 0 0 0 0 0 0 0 0 0 0 0 0 0 0 0 0 0 0 0 0 0 0 0 0 0 0 0 0 0 0 0 0 0 0 0 0 0
0 0 0 0 0 0 0 0 0 0 0 0 0 0 0 0 0 0 0 0 0 0 0 0 0 0 0 0 0 0 0 0 0 0 0 0 0 0 0 0 0 0 0 0 0 0 0 0 0
0 0 0 0 0 0 0 0 0 0 0 0 0 0 0 0 0 0 0 0 0 0 0 0 0 0 0 0 0 0 0 0 0 0 0 0 0 0 0 0 0 0 0 0 0 0 0 0 0
0 0 0 0 0 0 0 0 0 0 0 0 0 0 0 0 0 0 0 0 0 0 0 0 0 0 0 0 0 0 0 0 0 0 0 0 0 0 0 0 0 0 0 0 0 0 0 0 0
0 0 0 0 0 0 0 0 0 0 0 0 0 0 0 0 0 0 0 0 0 0 0 0 0 0 0 0 0 0 0 0 0 0 0 0 0 0 0 0 0 0 0 0 0 0 0 0 0
0 0 0 0 0 0 0 0 0 0 0 0 0 0 0 0 0 0 0 0 0 0 0 0 0 0 0 0 0 0 0 0 0 0 0 0 0 0 0 0 0 0 0 0 0 0 0 0 0
0 0 0 0 0 0 0 0 0 0 0 0 0 0 0 0 0 0 0 0 0 0 0 0 0 0 0 0 0 0 0 0 0 0 0 0 0 0 0 0 0 0 0 0 0 0 0 0 0
0 0 0 0 0 0 0 0 0 0 0 0 0 0 0 0 0 0 0 0 0 0 0 0 0 0 0 0 0 0 0 0 0 0 0 0 0 0 0 0 0 0 0 0 0 0 0 0 0
0 0 0 0 0 0 0 0 0 0 0 0 0 0 0 0 0 0 0 0 0 0 0 0 0 0 0 0 0 0 0 0 0 0 0 0 0 0 0 0 0 0 0 0 0 0 0 0 0
0 0 0 0 0 0 0 0 0 0 0 0 0 0 0 0 0 0 0 0 0 0 0 0 0 0 0 0 0 0 0 0 0 0 0 0 0 0 0 0 0 0 0 0 0 0 0 0 0
0 0 0 0 0 0 0 0 0 0 0 0 0 0 0 0 0 0 0 0 0 0 0 0 0 0 0 0 0 0 0 0 0 0 0 0 0 0 0 0 0 0 0 0 0 0 0 0 0
0 0 0 0 0 0 0 0 0 0 0 0 0 0 0 0 0 0 0 0 0 0 0 0 0 0 0 0 0 0 0 0 0 0 0 0 0 0 0 0 0 0 0 0 0 0 0 0 0
0 0 0 0 0 0 0 0 0 0 0 0 0 0 0 0 0 0 0 0 0 0 0 0 0 0 0 0 0 0 0 0 0 0 0 0 0 0 0 0 0 0 0 0 0 0 0 0 0
0 0 0 0 0 0 0 0 0 0 0 0 0 0 0 0 0 0 0 0 0 0 0 0 0 0 0 0 0 0 0 0 0 0 0 0 0 0 0 0 0 0 0 0 0 0 0 0 0
0 0 0 0 0 0 0 0 0 0 0 0 0 0 0 0 0 0 0 0 0 0 0 0 0 0 0 0 0 0 0 0 0 0 0 0 0 0 0 0 0 0 0 0 0 0 0 0 0
0 0 0 0 0 0 0 0 0 0 0 0 0 0 0 0 0 0 0 0 0 0 0 0 0 0 0 0 0 0 0 0 0 0 0 0 0 0 0 0 0 0 0 0 0 0 0 0 0
0 0 0 0 0 0 0 0 0 0 0 0 0 0 0 0 0 0 0 0 0 0 0 0 0 0 0 0 0 0 0 0 0 0 0 0 0 0 0 0 0 0 0 0 0 0 0 0 0
0 0 0 0 0 0 0 0 0 0 0 0 0 0 0 0 0 0 0 0 0 0 0 0 0 0 0 0 0 0 0 0 0 0 0 0 0 0 0 0 0 0 0 0 0 0 0 0 0
0 0 0 0 0 0 0 0 0 0 0 0 0 0 0 0 0 0 0 0 0 0 0 0 0 0 0 0 0 0 0 0 0 0 0 0 0 0 0 0 0 0 0 0 0 0 0 0 0
0 0 0 0 0 0 0 0 0 0 0 0 0 0 0 0 0 0 0 0 0 0 0 0 0 0 0 0 0 0 0 0 0 0 0 0 0 0 0 0 0 0 0 0 0 0 0 0 0
0 0 0 0 0 0 0 0 0 0 0 0 0 0 0 0 0 0 0 0 0 0 0 0 0 0 0 0 0 0 0 0 0 0 0 0 0 0 0 0 0 0 0 0 0 0 0 0 0
0 0 0 0 0 0 0 0 0 0 0 0 0 0 0 0 0 0 0 0 0 0 0 0 0 0 0 0 0 0 0 0 0 0 0 0 0 0 0 0 0 0 0 0 0 0 0 0 0
0 0 0 0 0 0 0 0 0 0 0 0 0 0 0 0 0 0 0 0 0 0 0 0 0 0 0 0 0 0 0 0 0 0 0 0 0 0 0 0 0 0 0 0 0 0 0 0 0
0 0 0 0 0 0 0 0 0 0 0 0 0 0 0 0 0 0 0 0 0 0 0 0 0 0 0 0 0 0 0 0 0 0 0 0 0 0 0 0 0 0 0 0 0 0 0 0 0
0 0 0 0 0 0 0 0 0 0 0 0 0 0 0 0 0 0 0 0 0 0 0 0 0 0 0 0 0 0 0 0 0 0 0 0 0 0 0 0 0 0 0 0 0 0 0 0 0
0 0 0 0 0 0 0 0 0 0 0 0 0 0 0 0 0 0 0 0 0 0 0 0 0 0 0 0 0 0 0 0 0 0 0 0 0 0 0 0 0 0 0 0 0 0 0 0 0
0 0 0 0 0 0 0 0 0 0 0 0 0 0 0 0 0 0 0 0 0 0 0 0 0 0 0 0 0 0 0 0 0 0 0 0 0 0 0 0 0 0 0 0 0 0 0 0 0
0 0 0 0 0 0 0 0 0 0 0 0 0 0 0 0 0 0 0 0 0 0 0 0 0 0 0 0 0 0 0 0 0 0 0 0 0 0 0 0 0 0 0 0 0 0 0 0 0
Wind_Speed
5 3 1 2 3 8 8 6 5 7 5 6 7 6 8 8 6 8 5 8 10 11 12 15 19 19 19 21 21 22 22 23 23 24 25 25 26 25 25 25 25 25 24 25 25 25 25 25 25
5 1 0 2 2 7 7 5 8 7 10 9 6 6 7 8 7 7 4 8 9 11 11 14 19 19 19 20 21 21 22 22 23 23 24 25 25 25 25 25 25 25 25 24 24 25 25 25 25
5 5 4 5 6 6 9 9 11 11 9 4 5 5 5 7 6 5 6 7 8 10 11 14 19 19 19 19 20 20 21 21 22 22 23 23 24 24 24 24 24 24 24 24 25 25 25 25 25
2 4 6 8 11 6 8 12 12 12 6 4 6 8 6 4 4 6 6 6 8 10 12 14 19 19 19 19 20 20 20 21 22 22 23 23 24 24 24 24 24 24 24 24 24 24 25 25 25
2 3 7 8 8 7 8 10 11 7 7 7 7 8 8 6 7 8 6 7 9 10 11 13 18 18 18 19 20 20 20 21 21 22 23 24 24 25 24 24 25 24 25 24 24 24 24 24 24
3 3 5 8 9 8 7 7 7 6 7 8 8 9 8 9 8 6 5 6 8 10 11 11 15 17 17 18 19 19 20 20 21 22 23 24 24 24 24 24 25 25 25 25 25 25 25 24 24
4 5 7 10 10 8 7 6 7 7 8 7 7 8 9 10 8 6 4 4 6 8 10 10 12 12 13 14 18 18 18 19 20 20 22 23 22 22 23 23 24 25 25 25 25 25 25 25 24
4 7 8 8 9 8 9 6 4 5 7 6 6 6 8 13 10 6 4 3 5 7 9 11 11 11 11 10 14 15 16 17 18 18 21 21 20 20 21 21 24 25 25 25 25 25 25 25 23
1 5 6 7 7 8 11 8 6 3 7 5 3 1 7 15 11 7 3 3 5 7 8 9 10 10 10 10 10 11 12 15 16 15 20 18 14 15 15 20 23 23 24 24 23 24 24 23 19
5 5 6 3 2 9 12 8 10 8 8 7 7 7 13 14 11 7 3 3 6 8 8 8 9 10 10 8 7 7 8 10 11 11 14 12 12 11 14 18 20 21 22 21 21 23 20 16 12
8 8 7 5 5 10 11 9 9 9 8 9 12 16 17 13 10 7 4 3 5 6 7 7 8 9 9 7 7 5 5 6 8 11 12 11 10 9 10 9 11 13 16 13 15 15 12 13 12
9 8 7 8 7 9 10 10 8 10 3 5 12 18 17 14 11 8 5 3 3 5 7 7 7 8 9 8 6 6 6 6 7 9 11 10 8 9 10 8 10 10 8 12 12 10 14 15 15
8 8 6 8 8 8 8 8 6 9 3 8 15 16 15 13 10 7 5 3 2 5 7 7 7 8 8 7 6 6 7 7 8 7 9 11 9 10 11 10 10 11 10 11 12 13 15 15 15
10 11 10 7 7 6 6 5 6 8 9 14 16 16 14 12 11 9 7 4 2 4 5 6 6 8 8 7 7 7 7 7 7 7 10 11 10 10 11 11 11 11 11 11 12 15 14 13 13
9 9 7 5 4 4 5 7 10 9 14 16 16 15 14 12 11 10 8 5 2 3 4 6 7 8 9 9 9 7 7 8 7 7 9 11 11 12 12 11 11 11 12 14 13 15 13 13 14
5 5 4 6 5 4 6 7 6 13 16 16 16 15 14 13 13 10 8 6 3 1 3 5 5 8 9 9 9 7 7 8 7 7 8 11 12 13 12 11 11 12 12 12 12 12 13 13 14
4 3 2 4 6 5 7 8 5 12 15 16 16 15 14 14 13 11 10 7 4 1 2 4 6 8 9 9 8 7 7 7 7 7 8 11 13 13 13 11 11 13 12 12 12 12 13 14 15
1 2 3 2 6 8 10 12 5 11 16 16 16 15 15 15 14 12 11 8 5 3 1 4 6 7 9 7 7 6 7 7 7 7 9 12 11 14 13 11 13 13 12 12 12 15 15 14 14
2 3 5 2 3 6 12 15 12 11 15 17 16 16 16 15 13 11 11 9 7 4 1 4 6 7 7 6 7 7 8 7 7 7 11 12 12 13 13 11 12 12 12 14 16 15 16 14 13
2 5 5 1 2 6 11 16 10 9 16 17 17 17 16 15 13 12 12 10 8 4 1 4 6 7 7 6 6 6 8 7 7 7 9 11 12 13 11 13 12 13 13 15 15 15 13 13 12
3 4 6 6 2 4 9 7 3 3 7 12 15 15 15 15 15 14 13 11 8 4 0 2 5 6 7 8 6 6 6 7 6 9 8 11 13 13 13 14 14 14 14 13 16 16 17 14 14
2 1 4 5 7 3 5 6 3 2 5 9 13 15 15 14 14 13 13 11 8 4 2 1 4 6 6 7 7 10 8 9 10 9 9 12 12 13 13 14 15 15 13 15 16 15 15 16 13
2 1 3 3 4 4 1 6 2 2 2 3 6 11 13 13 13 13 12 10 7 5 2 1 4 5 6 7 8 9 9 8 8 10 12 12 11 12 13 14 14 14 13 15 16 16 15 13 13
1 3 4 4 4 3 2 5 4 1 1 2 1 3 8 11 11 12 11 9 7 5 3 1 4 4 6 7 8 9 10 11 12 12 12 11 10 10 13 15 14 14 13 15 15 15 16 13 14
3 5 4 3 2 3 2 6 7 2 3 5 6 4 5 9 12 13 13 10 8 6 3 2 4 4 6 7 8 8 10 11 11 12 11 12 10 11 14 15 15 14 14 15 15 14 13 13 14
2 4 5 5 7 6 2 6 5 1 3 4 6 5 6 10 12 13 12 10 8 5 4 2 3 4 6 7 8 8 9 7 8 11 11 11 10 11 15 16 15 16 16 15 14 12 12 11 12
2 2 2 4 4 7 6 5 8 4 6 8 8 7 9 12 13 13 11 9 7 6 4 2 3 4 6 7 8 8 8 9 10 11 11 10 11 11 14 15 15 15 15 15 15 11 12 12 11
3 4 3 2 5 7 8 7 5 5 5 5 9 10 11 12 13 13 11 10 8 6 4 3 2 4 6 7 6 6 8 9 10 10 11 12 13 13 14 15 15 15 15 15 14 13 13 13 11
6 4 3 2 3 5 7 7 5 8 6 7 8 8 11 14 15 13 11 10 8 6 5 3 2 4 5 6 7 8 8 9 10 9 11 12 12 13 13 14 14 14 15 14 13 13 14 13 13
3 4 6 4 4 5 6 10 4 7 7 8 9 7 9 13 13 13 12 10 8 7 6 4 3 4 5 6 7 7 8 9 9 10 11 12 12 13 13 13 14 14 14 14 13 13 13 13 13
Wind_Direction
107 113 222 232 100 73 80 81 106 121 94 82 70 71 74 54 32 80 85 14 360 355 353 349 6 8 11 14 14 14 14 14 14 13 13 11 9 8 7 5 3 2 1 359 357 355 353 352 352
80 98 15 15 92 106 97 120 123 104 115 117 91 88 92 85 70 88 73 21 8 5 359 358 8 9 11 14 14 14 14 15 14 13 12 11 8 6 6 4 2 1 360 358 356 353 351 350 349
86 57 52 60 67 88 120 135 122 116 126 132 107 70 73 95 97 88 58 26 16 17 10 5 10 11 13 15 14 15 14 15 14 13 11 10 8 5 5 3 0 359 358 356 355 352 350 348 346
104 81 69 68 84 69 115 136 133 135 137 125 133 114 96 69 84 91 75 37 26 24 17 11 13 13 15 16 16 15 14 14 12 10 9 8 6 3 2 1 357 357 355 354 353 350 348 346 344
69 85 85 82 87 106 117 133 151 149 141 139 145 125 115 112 111 104 80 43 29 25 20 17 16 16 16 17 16 14 14 13 10 7 5 3 2 359 357 358 354 353 352 351 350 347 346 343 341
83 75 105 117 116 130 142 158 168 153 139 145 150 131 123 140 138 111 81 53 36 26 21 21 19 18 15 15 16 13 13 10 8 4 1 359 357 355 353 354 350 349 348 346 346 343 342 340 338
79 75 96 124 136 154 151 164 184 160 152 150 152 138 136 161 144 128 95 59 41 28 24 21 17 15 11 13 14 11 11 8 5 2 358 355 353 351 350 350 347 345 345 343 342 339 338 336 333
69 101 109 134 149 149 143 144 147 166 133 129 175 165 162 163 152 146 114 60 41 33 27 20 16 12 1 4 13 8 8 5 1 359 357 353 350 349 347 347 344 342 341 339 337 335 334 333 328
304 104 129 147 161 147 155 153 135 114 134 151 184 160 130 143 154 161 153 94 50 38 30 20 12 7 359 356 1 360 3 3 359 358 356 352 348 346 342 342 338 338 337 335 333 333 330 328 322
20 91 99 82 124 150 162 168 155 165 171 173 168 144 141 151 166 172 155 73 41 32 26 20 11 3 357 353 352 355 359 358 358 354 352 347 343 338 336 332 333 333 332 330 330 329 327 326 321
50 79 106 98 108 144 154 161 169 184 194 198 183 163 160 168 175 177 160 85 48 34 27 21 11 0 357 351 349 354 351 351 350 351 348 340 338 332 332 330 329 329 328 329 327 324 326 322 318
85 78 99 118 127 150 158 160 184 207 230 186 172 162 167 178 183 182 169 120 68 37 27 16 5 359 356 352 348 352 349 347 345 343 344 342 335 331 330 325 323 323 323 322 321 317 317 315 312
86 107 95 110 124 137 153 178 197 208 194 163 157 166 178 185 184 176 168 152 80 40 25 13 355 358 355 351 345 349 349 346 340 339 340 340 331 328 326 320 320 317 318 317 317 313 314 311 309
104 114 120 126 130 152 175 187 222 206 168 163 168 179 189 191 189 183 188 179 101 43 22 5 353 358 352 351 349 347 345 341 336 337 338 336 330 325 322 318 317 315 317 316 311 309 309 307 307
123 119 133 152 158 157 200 220 222 177 171 176 183 190 196 198 196 200 193 178 124 52 13 2 350 352 349 348 347 344 343 340 334 334 332 334 330 326 323 317 316 316 316 313 309 308 306 306 305
152 172 189 160 176 163 232 265 169 165 180 189 195 199 202 204 206 203 190 178 154 107 360 357 347 343 346 345 342 342 341 339 333 332 331 336 333 330 324 318 317 317 315 312 310 308 309 307 306
191 233 259 161 188 186 232 267 139 176 193 202 205 208 208 208 208 202 193 184 175 178 345 343 349 343 342 339 336 338 335 334 332 333 335 337 334 332 326 319 316 319 315 312 309 309 309 306 305
164 273 282 279 170 211 238 256 212 191 206 215 215 215 215 215 211 201 193 186 181 189 309 340 345 343 339 336 335 335 335 334 335 334 335 335 332 331 326 318 320 319 313 312 312 310 306 303 303
336 290 300 344 136 238 256 268 262 207 210 223 224 221 222 222 215 196 193 188 190 198 283 345 341 345 344 341 340 336 335 331 330 330 330 329 329 328 324 320 318 316 312 311 308 307 305 304 304
253 282 300 286 160 260 293 285 274 228 216 224 230 228 226 223 209 197 194 191 198 202 282 335 344 343 346 343 332 325 320 318 318 322 326 327 327 324 320 318 315 313 309 307 307 307 303 301 302
252 288 316 316 302 226 296 279 157 172 228 235 239 240 234 225 215 200 194 193 194 194 342 345 341 337 342 340 329 323 318 319 329 332 328 327 324 319 317 315 314 311 310 306 306 305 301 300 300
293 326 293 293 294 313 339 315 129 160 241 234 233 232 232 225 218 202 192 189 185 163 135 328 333 333 342 340 335 336 331 330 332 329 322 322 320 318 317 316 315 312 310 307 305 302 299 296 294
328 325 265 260 275 276 224 290 333 124 255 226 232 231 228 220 210 196 186 177 162 148 151 312 323 329 342 342 338 333 329 327 324 324 322 324 322 320 320 322 320 318 314 310 307 303 298 293 290
237 215 183 201 239 262 76 305 300 121 278 272 247 249 226 210 197 184 170 160 156 155 169 276 311 329 343 341 338 334 330 329 326 328 326 326 322 322 326 327 325 323 319 316 313 306 300 294 289
250 296 300 290 286 360 79 273 269 335 270 275 282 280 222 196 185 175 169 170 170 176 186 249 301 332 345 340 335 332 329 326 326 327 325 325 323 324 328 329 327 325 323 319 316 311 305 299 293
37 335 353 324 322 322 233 262 283 250 256 259 263 265 214 193 187 181 176 174 173 178 193 240 307 337 341 335 332 326 327 324 320 323 321 320 320 322 323 325 324 326 327 326 325 318 314 303 295
152 104 16 283 282 279 273 273 287 202 242 239 239 231 212 197 189 184 176 175 176 180 191 238 308 331 333 328 324 321 328 325 320 319 319 319 319 320 322 323 326 328 329 330 330 328 328 319 306
358 134 173 245 303 299 293 275 263 286 289 234 233 229 215 197 190 184 178 176 177 178 187 214 290 322 321 318 321 318 321 321 318 316 319 320 321 322 323 325 328 329 331 331 330 330 336 334 330
160 163 174 178 266 278 297 287 207 261 287 275 268 240 212 196 190 184 179 176 175 179 193 209 261 301 310 315 316 317 320 319 318 317 319 320 320 323 325 326 327 329 330 330 329 334 335 334 335
238 204 190 223 209 229 269 273 205 241 259 260 268 258 217 197 189 182 177 175 181 189 196 206 242 285 306 309 310 314 317 318 319 319 320 320 321 323 324 325 326 327 328 326 325 330 332 332 332